Language selection

Weather shortcuts

Coats - northern half: Past 24 Hour Conditions

 

Waskaganish Airport

02:00 AM EST 01 March 2024
Disclaimer

This table is a summary of hourly weather conditions for the past 24 hours.
Please note that these observations might not always be representative of weather conditions over their associated marine area.

Date / Time
(EST)
Wind(knots) Conditions Visibility(km) Pressure(kPa) Air tempC) Relative humidity(%) Dew pointC) Wind Chill
01 March 2024
2:00 WSW 12 N/A N/A 102.3 -23 70 -27 -36
1:00 SW 11 N/A N/A 102.3 -23 69 -28 -35
0:00 SW 12 N/A N/A 102.3 -23 70 -27 -35
29 February 2024
23:00 WSW 11 N/A N/A 102.3 -23 70 -27 -35
22:00 WSW 12 gusts 18 N/A N/A 102.3 -23 68 -27 -34
21:00 WSW 12 gusts 19 N/A N/A 102.3 -22 68 -27 -34
20:00 WSW 11 N/A N/A 102.2 -22 69 -27 -34
19:00 WSW 10 N/A N/A 102.2 -22 69 -26 -33
18:00 W 12 gusts 21 N/A N/A 102.2 -22 68 -26 -33
17:00 W 18 gusts 26 N/A N/A 102.2 -21 68 -25 -34
16:00 W 18 gusts 25 N/A N/A 102.1 -21 69 -25 -34
15:00 W 17 gusts 25 N/A N/A 102.0 -21 69 -25 -34
14:00 W 19 gusts 26 N/A N/A 102.0 -22 70 -26 -36
13:00 W 18 gusts 28 N/A N/A 101.9 -22 72 -26 -36
12:00 W 18 gusts 26 N/A N/A 101.9 -23 70 -27 -37
11:00 W 16 gusts 23 N/A N/A 101.8 -24 71 -28 -38
10:00 W 17 gusts 26 N/A N/A 101.7 -25 71 -28 -39
9:00 W 18 gusts 24 N/A N/A 101.6 -25 71 -29 -40
8:00 W 16 gusts 22 N/A N/A 101.5 -25 73 -29 -39
7:00 W 16 gusts 21 N/A N/A 101.4 -25 73 -29 -39
6:00 W 15 gusts 23 N/A N/A 101.3 -25 73 -28 -39
5:00 W 16 gusts 25 N/A N/A 101.2 -25 74 -28 -39
4:00 W 17 gusts 25 N/A N/A 101.2 -25 75 -28 -39
3:00 W 20 gusts 26 N/A N/A 101.1 -24 76 -27 -39
2:00 W 19 gusts 31 N/A N/A 100.9 -22 76 -26 -37

Zoom-in to make a selection

Map of Hudson - Hudson Bay marine weather areas Arviat Airport Baker Lake Airport Chesterfield Inlet Airport Coral Harbour Airport Rankin Inlet Airport Sanikiluaq Airport Whale Cove Airport Kinngait (Cape Dorset Airport) Iqaluit Airport Wager Bay Kimmirut Airport Churchill Airport Fort Severn Airport Peawanuck Airport Moosonee Airport Eastmain Airport La Grande Rivière Airport Waskaganish Airport Wemindji Airport Akulivik Airport Inukjuak Airport Ivujivik Airport Kuujjuarapik Airport Puvirnituq Airport Umiujaq Airport Aupaluk Airport Kangiqsujuaq Airport Kangirsuk Airport Kangiqsualujjuaq Airport Kuujjuaq Airport Quaqtaq Airport Salluit Airport Tasiujaq Airport Cape Kakkiviak
Legend:
buoy Buoy
land station Land Station

Hudson - Hudson Bay Area

Another Region

Date modified: